sat.trackr.live / text

‹ back to catalog

STARLINK-5823

NORAD 55786 · 2023-028AX

PAYLOAD ACTIVE UNKNOWN

§ Identity

Operator
Country
US
Launch date
2023-03-03
Launch site
AFWTR
Launch vehicle
Mass (kg)
RCS (m²)

Purposes: comms

External: N2YO · Heavens-Above · Gunter

§ Orbital elements

Epoch: 2026-09-20T22:00:03.000096Z

Period
94.93 min
Inclination
69.9999°
Eccentricity
0.0003739
Mean motion
15.16831192 rev/d
Perigee alt
512.8 km
Apogee alt
518.0 km
Semi-major
6,893.6 km
B*
3.5068e-3
RAAN
71.5928°
Arg perigee
284.1929°
Mean anomaly
134.1554°
Rev number
576

§ Raw data

STARLINK-58231 55786U 23028AX  26263.91670139  .00069687  00000+0  35068-2 0  99902 55786  69.9999  71.5928 0003739 284.1929 134.1554 15.16831192  5761

JSON: /api/v1/satellites/55786 · /tle

For live sub-satellite position, see the globe view (requires WebGL).

§ Visibility from observer

Set your observer location to see the next 7 days of passes ≥ 10°. The values pass through the URL so the page stays shareable.

No JS? Fill the form by hand. The geolocation button needs JavaScript.